Weather in Bolshoy Truev

Russia / Penza Oblast     53°05′18″N   46°53′18″E
temp.,
°C
wind,
m/s
gust,
m/s
humid.,
%
clouds,
%
prec.,
mm/h
press.,
hPa
HPBL,
m
28 february, sun
sun2800:00−16nnw5119199 0.0 1007508
03:00−17nnw6139196 0.0 1009488
06:00−18nw5129265 0.0 1011408
09:00−16nw5109155 0.0 1011391
12:00−12nw588736 0.0 1012565
15:00−12nw588765 0.0 1013602
18:00−15nnw3994100 0.0 1015318
21:00−18nnw389684 0.0 1017207
1 march, mon
mon100:00−18nw359688 0.0 1019121
03:00−19nw379743 0.0 1021136
06:00−20nw36980 0.0 1022111
09:00−16nnw36939 0.0 1024236
12:00−11nw358736 0.0 1024412
15:00−9wnw368851 0.0 1024490
18:00−12w359686 0.0 1023103
21:00−14wsw379773 0.0 1022148
2 march, tue
tue200:00−12wsw4109795 0.0 1020246
03:00−8wsw6149498 0.1 1016445
06:00−5sw71493100 0.4 1012618
09:00−4wsw71494100 1.2 1008672
12:00−1wsw71295100 0.9 1004768
15:000wsw61098100 1.8 1002733
18:00−1nw4109698 0.6 1002587
21:00−4wnw4109776 0.8 1003350
3 march, wed
wed300:00−4wnw5109495 0.3 1003437
03:00−5wnw5119498 0.3 1004375
06:00−6wnw4119491 0.0 1004417
09:00−4nw5109293 0.1 1006621
12:00−3nw598894 0.1 1007814
15:00−3nw699097 0.3 1008807
18:00−5nw51192100 0.1 1009621
21:00−6nnw6129297 0.3 1012602
4 march, thu
thu400:00−9nw41194100 0.0 1014400
03:00−10wnw499696 0.1 1016241
06:00−12wnw499692 0.0 1017206
09:00−9w499493 0.1 1017325
12:00−4w6119099 0.0 1015641
15:00−3wsw7148999 0.1 1013794
18:00−4wsw71689100 0.0 1011698
21:00−4wsw71890100 0.0 1011681